Location: Brno
(49.2000°N, 16.6330°E)
Time: 14:04:09
(UTC+02:00)

Daily predictions for brighter satellites

Satellite Brightness Start Highest point End
(mag) Time Altitude Azimuth Time Altitude Azimuth Time Altitude Azimuth
Cosmos 1140 Rocket 3.5 21:08:30 10° NNW 21:13:41 79° ENE 21:18:50 10° SSE
Cosmos 1782 Rocket 4.0 21:09:33 10° SSE 21:13:47 44° E 21:18:03 10° NNE
Cosmos 2341 Rocket 4.2 21:10:04 10° S 21:16:12 58° E 21:22:20 10° NNE
Sich 1 Rocket 3.8 21:13:28 10° S 21:18:04 85° W 21:22:41 10° N
Cosmos 2084 3.2 21:18:54 10° SSW 21:22:41 60° SE 21:26:29 10° NE
Cosmos 1975 Rocket 3.0 21:19:57 10° N 21:24:17 74° ENE 21:28:37 10° SSE
CZ-4B R/B 4.5 21:20:39 10° NE 21:24:48 26° E 21:28:50 10° SSE
MetOp-B 4.2 21:20:13 10° SSE 21:25:31 67° ENE 21:30:50 10° N
Timation 2 Rocket 3.9 21:21:34 10° NNW 21:27:37 85° WSW 21:33:36 10° SSE
Cosmos 1812 4.5 21:25:38 10° NNE 21:28:26 19° ENE 21:31:12 10° ESE
Terra 3.4 21:26:12 10° ESE 21:29:46 21° ENE 21:33:20 10° NNE
Cosmos 1452 Rocket 3.5 21:25:06 10° SSW 21:30:23 87° ESE 21:35:43 10° NNE
PSLV R/B 3.1 21:29:30 10° SSE 21:32:26 66° ENE 21:35:23 10° N
H-2A R/B 3.3 21:28:52 10° ESE 21:33:25 29° ENE 21:37:54 10° N
USA 229 DEB 3.9 21:26:24 10° NW 21:33:32 80° NE 21:40:29 11° SE
USA 229 3.9 21:26:30 10° NW 21:33:38 79° NE 21:40:35 11° SE
COSMOS 2487 3.6 21:30:15 10° NW 21:33:42 43° WSW 21:37:07 10° S
Meteor 1-27 Rocket 4.4 21:28:25 10° NNW 21:33:52 56° W 21:39:13 10° S
Cosmos 1378 Rocket 4.1 21:29:42 10° NNW 21:33:57 59° W 21:38:11 10° S
Cosmos 1238 Rocket 2.9 21:31:18 10° NNW 21:34:30 62° W 21:38:15 10° S
CZ-4 SHROUD 3.2 21:31:32 10° SSE 21:34:36 67° ENE 21:37:42 10° N
Gbstr 26 Del rocket 3.4 21:31:09 10° WNW 21:36:47 81° NNE 21:41:17 10° ESE
Cosmos 1536 Rocket 4.4 21:32:55 10° N 21:37:05 36° ENE 21:40:50 12° SE
Cosmos 1908 Rocket 4.0 21:33:57 10° SSW 21:38:21 67° WNW 21:42:49 10° N
Cosmos 2154 Rocket 4.2 21:33:49 10° SSW 21:40:01 80° W 21:46:16 10° N
BREEZE-M DEB (TANK) 3.1 21:38:59 10° WSW 21:41:49 76° SSE 21:49:28 10° ENE
SPOT 5 3.3 21:38:18 10° S 21:43:37 77° WSW 21:49:01 10° NNW
Cosmos 1606 4.5 21:41:31 10° NNW 21:45:03 33° W 21:48:35 10° SSW
ARGOS 3.3 21:41:43 10° SSE 21:46:56 63° ENE 21:52:14 10° N
deb Chang Zheng 4 3.8 21:43:33 10° NNE 21:47:59 77° WNW 21:52:26 10° SSW
Intercosmos 25 3.0 21:45:08 10° S 21:48:24 56° E 21:51:34 10° NNE
SPOT 1/Viking Rocket 3.6 21:43:38 10° SSE 21:48:49 73° ENE 21:54:03 10° NNW
Cosmos 1862 4.2 21:47:04 10° SSW 21:51:03 54° WNW 21:55:05 10° N
Lacrosse 5 3.6 21:55:45 13° ESE 21:55:45 13° ESE 21:57:42 10° E
AVUM R/B 3.4 21:53:56 10° NNW 21:57:27 73° ENE 21:59:53 18° SE
ISS -3.4 21:54:38 10° WSW 21:57:52 64° SSE 22:01:06 10° ENE
Cosmos 1850 Rocket 4.5 21:52:58 10° NNW 21:58:13 61° WSW 22:03:28 10° S
USA 245 3.4 21:56:16 13° SSE 21:59:27 89° W 22:04:02 10° NNW
Cosmos 2366 rocket 4.1 21:59:16 10° S 22:05:26 60° E 22:11:41 10° NNE
Cosmos 1184 Rocket 4.1 22:03:03 10° SSW 22:06:15 42° WNW 22:09:29 10° N
H-2A R/B 3.7 22:03:09 10° SSW 22:06:56 30° W 22:10:39 10° NW
Cosmos 1833 Rocket 2.7 22:04:21 10° NNW 22:09:59 82° WSW 22:14:27 17° SSE
Cosmos 1242 Rocket 3.9 22:07:09 10° NNW 22:10:34 36° W 22:13:59 10° SSW
Cosmos 2151 Rocket 3.6 22:07:16 11° S 22:11:33 64° E 22:16:04 10° NNE
ATLAS 2AS CENTAUR R/B 4.3 22:04:29 10° NW 22:11:59 37° NNE 22:19:18 10° E
BREEZE-M DEB 4.0 22:11:31 10° WSW 22:15:25 71° SSE 22:17:38 14° E
CZ-4C R/B 3.5 22:15:27 21° SSE 22:18:01 64° ENE 22:22:13 10° N
YAOGAN 6 3.8 22:15:28 10° SSW 22:18:46 37° W 22:22:05 10° NNW
Cosmos 2278 Rocket 2.9 22:13:44 10° SW 22:19:19 58° WNW 22:24:58 10° NNE
NOSS 3-1 (C) 4.2 22:13:40 10° NW 22:20:58 70° NE 22:27:29 17° SE
Meteor 1-25 Rocket 4.4 22:17:53 12° S 22:23:10 62° E 22:28:54 10° NNE
Cosmos 1300 Rocket 4.3 22:21:02 22° SE 22:23:20 37° E 22:27:26 10° NNE
BREEZE-M TANK 3.6 22:10:55 10° W 22:24:02 63° S 22:26:48 19° ESE
Cosmos 1331 Rocket 4.3 22:25:11 18° S 22:28:43 44° ESE 22:33:37 10° NE
Okean 1 Rocket 3.8 22:27:34 24° SE 22:29:40 37° E 22:33:48 10° NNE
CZ-4 R/B 3.7 22:25:58 10° NNE 22:30:40 75° ESE 22:34:37 14° S
USA 234 4.1 22:27:00 10° ENE 22:32:16 26° SE 22:35:02 19° SSE
DMSP B5D2-2 4.4 22:29:02 10° NNE 22:34:02 45° E 22:37:01 23° SSE
SL-8 R/B 3.6 22:29:37 10° W 22:34:27 82° S 22:38:35 14° E
Cosmos 2082 Rocket 3.0 22:29:38 10° NW 22:35:02 44° WSW 22:39:22 15° S
Cosmos 2218 Rocket 4.2 22:29:07 10° SSW 22:35:32 77° W 22:41:58 10° N
Cosmos 1110 Rocket 4.0 22:32:42 14° S 22:37:03 59° ESE 22:42:10 10° NNE
Okean 1-7 Rocket 3.7 22:36:40 10° N 22:41:09 64° ENE 22:43:22 28° SSE
Meteor 2-19 Rocket 4.4 22:36:59 14° S 22:42:20 81° E 22:48:28 10° NNE
Cosmos 1727 Rocket 4.2 22:38:41 10° NNW 22:44:48 67° W 22:49:48 16° S
Meteor 2-4 Rocket 4.4 22:40:57 10° N 22:46:03 39° ENE 22:48:53 23° ESE
SAR-Lupe-2 3.7 22:46:02 35° SE 22:47:16 59° ENE 22:50:49 10° N
Okean 1 3.4 22:45:33 10° NNW 22:49:38 75° W 22:51:40 28° S
Landsat 7 4.2 22:48:19 21° S 22:51:25 59° W 22:56:09 10° NNW
NOSS 8 (F) 4.5 22:51:51 10° SW 22:55:20 86° SE 22:59:16 10° NE
Meteor 1-13 Rocket 4.3 22:50:10 10° N 22:56:09 81° ENE 22:59:35 27° SSE
Cosmos 2297 4.4 22:50:56 10° SW 22:56:34 58° NW 23:02:15 10° NNE
Cosmos 1486 Rocket 4.1 22:55:15 10° NNW 23:00:35 75° WSW 23:03:21 29° S
Cosmos 1354 Rocket 4.2 22:55:41 10° NNW 23:00:56 65° ENE 23:03:30 30° SE
CZ-4B R/B 4.4 22:58:58 10° N 23:03:43 46° WNW 23:08:18 10° SW
Cosmos 1812 3.7 23:00:52 10° NNW 23:04:32 41° W 23:06:29 23° SSW
CARTOSAT-1 4.0 23:04:13 27° SSW 23:06:22 54° W 23:10:38 10° NNW
Terra 2.2 23:04:33 26° S 23:07:08 59° W 23:11:51 10° NNW
Cosmos 1602 4.0 23:06:27 42° SE 23:07:18 52° E 23:11:08 10° NNE
CZ-4B R/B 3.9 23:08:24 10° ENE 23:09:02 11° ENE 23:09:52 10° NE
H-2A R/B 2.8 23:09:17 21° SSW 23:12:36 49° W 23:17:44 10° NNW
Meteor 1-11 Rocket 3.8 23:11:42 29° S 23:14:42 67° E 23:20:24 10° NNE
Genesis I 3.4 23:17:20 48° SSE 23:17:46 51° ESE 23:21:41 10° NE
Spot 2 3.9 23:14:50 10° NNE 23:19:11 73° ESE 23:20:32 42° S
Cosmos 1821 Rocket 4.0 23:18:28 30° S 23:21:44 70° E 23:27:55 10° NNE
Gbstr 26 Del rocket 3.8 23:18:56 10° WNW 23:23:26 35° SW 23:24:02 33° SSW
Spot 4 4.3 23:22:02 29° SSW 23:24:18 54° W 23:29:05 10° NNW
Cosmos 2084 Rocket 3.2 23:20:36 10° NW 23:24:30 83° NE 23:25:27 50° SE
Cosmos 2369 Rocket 2.6 23:24:23 35° SSE 23:25:58 43° ESE 23:31:15 10° NE
Cosmos 1892 Rocket 3.6 23:24:59 10° N 23:29:22 68° ENE 23:30:30 46° SE
Cosmos 1689 Rocket 4.4 23:29:08 17° ENE 23:29:24 17° ENE 23:31:33 10° NNE
Cosmos 1934 Rocket 3.9 23:28:33 33° SSE 23:31:18 69° E 23:37:22 10° NNE
Meteor 2-21 4.4 23:28:23 28° S 23:31:50 88° E 23:38:05 10° N
Cosmos 1302 Rocket 3.9 23:28:55 27° SSW 23:31:51 88° ESE 23:37:11 10° NNE
Cosmos 1315 Rocket 3.0 23:32:17 47° ESE 23:32:34 48° E 23:36:22 10° NNE
BREEZE-M DEB (TANK) 2.1 23:30:50 10° W 23:33:19 86° S 23:39:49 10° ESE
Cosmos 2285 Rocket 4.1 23:30:36 33° SSE 23:33:21 57° ESE 23:39:37 10° NNE
ISS -2.7 23:31:10 10° W 23:34:23 55° N 23:36:28 19° ENE
Cosmos 44 Rocket 4.3 23:30:24 10° NNW 23:35:21 43° NE 23:38:15 22° E
Cosmos 2123 Rocket 4.0 23:29:05 10° N 23:35:24 81° E 23:38:13 35° SSE
Lacrosse 5 rocket 0.9 23:35:09 63° S 23:35:33 71° SE 23:39:15 10° ENE
Meteor 1-23 Rocket 4.1 23:30:15 10° NNW 23:35:52 87° ENE 23:38:05 38° SSE
Cosmos 1809 Rocket 4.4 23:33:00 28° SSW 23:36:30 86° W 23:42:45 10° N
Cosmos 1356 3.5 23:36:13 57° SW 23:36:47 73° WNW 23:40:20 10° N
Lacrosse 5 1.8 23:34:48 27° SSW 23:37:29 61° SE 23:42:30 10° ENE
deb Kosmos-1763 4.2 23:36:26 10° NNW 23:40:21 69° ENE 23:40:56 58° ESE
Okean 2 3.4 23:38:09 10° N 23:42:20 75° ENE 23:43:07 56° SSE
NOSS 3-1 (A) 4.1 23:35:25 10° NW 23:42:47 63° SW 23:46:47 32° SSE
Cosmos 1025 Rocket 3.5 23:42:19 10° NNW 23:46:38 54° W 23:47:53 39° SSW
Cosmos 1346 Rocket 3.4 23:43:44 10° N 23:47:29 42° ENE 23:47:56 40° E
Cosmos 1602 Rocket 4.3 23:44:35 10° N 23:48:50 42° ENE 23:49:49 36° ESE
ASTEX 1 4.3 23:45:28 10° N 23:50:10 44° WNW 23:52:59 22° SW
Iridium 4 Rocket 4.0 23:44:22 10° N 23:50:14 68° W 23:52:58 33° SSW
Cosmos 1633 2.7 23:52:16 61° SW 23:52:44 71° W 23:56:28 10° N
Cosmos 1626 Rocket 4.2 23:48:32 10° N 23:52:52 45° ENE 23:53:48 39° ESE
